When you browse on this site, cookies collect data to enhance your experience and personalize the content and advertising you see.
Visit our Privacy Policy to learn more. By continuing to use the site, you agree to this use of cookies and data.
  • In Österreich
  • Länderverzeichnis
  • Für 7 Tage
  • Wassertemperatur
  • Satellitenkarten
  • Wetterkarte
  • News
  • Widgets
  • user-avatar
    Anmelden

    Stündliche Wetter Vidoshin

    Heute, 23 Juli, Dienstag

    Zeit Temperatur Niederschläge Wind Luftdruck Luftfeuchtigkeit
    00:00 +16°C° 0 mm 3 m/S 750 mmHg 96%
    01:00 +14°C° 0 mm 3 m/S 749 mmHg 96%
    02:00 +14°C° 0 mm 3 m/S 749 mmHg 97%
    03:00 +13°C° 0 mm 3 m/S 749 mmHg 97%
    04:00 +13°C° 0 mm 3 m/S 749 mmHg 97%
    05:00 +13°C° 0 mm 3 m/S 749 mmHg 97%
    06:00 +13°C° 0 mm 3 m/S 749 mmHg 95%
    07:00 +14°C° 0 mm 4 m/S 749 mmHg 93%
    08:00 +14°C° 0 mm 4 m/S 749 mmHg 91%
    09:00 +15°C° 0 mm 4 m/S 749 mmHg 88%
    10:00 +17°C° 0 mm 4 m/S 749 mmHg 86%
    11:00 +17°C° 0 mm 4 m/S 749 mmHg 84%
    12:00 +17°C° 0.2 mm 4 m/S 748 mmHg 85%
    13:00 +17°C° 0.2 mm 4 m/S 748 mmHg 86%
    14:00 +16°C° 0.2 mm 5 m/S 748 mmHg 87%
    15:00 +18°C° 0.1 mm 4 m/S 748 mmHg 87%
    16:00 +18°C° 0.1 mm 3 m/S 748 mmHg 88%
    17:00 +18°C° 0.1 mm 3 m/S 748 mmHg 88%
    18:00 +18°C° 0 mm 3 m/S 748 mmHg 89%
    19:00 +17°C° 0 mm 3 m/S 748 mmHg 89%
    20:00 +17°C° 0 mm 3 m/S 747 mmHg 90%
    21:00 +17°C° 0 mm 3 m/S 747 mmHg 91%
    22:00 +17°C° 0 mm 3 m/S 747 mmHg 91%
    23:00 +16°C° 0 mm 3 m/S 748 mmHg 91%

    Morgen, 24 Juli, Mittwoch

    Zeit Temperatur Niederschläge Wind Luftdruck Luftfeuchtigkeit
    00:00 +16°C° 0 mm 3 m/S 747 mmHg 92%
    01:00 +16°C° 0 mm 3 m/S 747 mmHg 93%
    02:00 +14°C° 0 mm 3 m/S 747 mmHg 94%
    03:00 +14°C° 0 mm 3 m/S 747 mmHg 95%
    04:00 +14°C° 0 mm 3 m/S 747 mmHg 95%
    05:00 +14°C° 0 mm 3 m/S 747 mmHg 95%
    06:00 +15°C° 0 mm 4 m/S 747 mmHg 89%
    07:00 +18°C° 0 mm 4 m/S 748 mmHg 82%
    08:00 +19°C° 0 mm 4 m/S 748 mmHg 76%
    09:00 +21°C° 0 mm 4 m/S 748 mmHg 71%
    10:00 +22°C° 0 mm 4 m/S 748 mmHg 66%
    11:00 +25°C° 0 mm 5 m/S 748 mmHg 62%
    12:00 +25°C° 0.1 mm 5 m/S 748 mmHg 59%
    13:00 +25°C° 0.1 mm 5 m/S 748 mmHg 57%
    14:00 +26°C° 0.1 mm 5 m/S 748 mmHg 54%
    15:00 +26°C° 0.1 mm 5 m/S 748 mmHg 56%
    16:00 +25°C° 0.1 mm 4 m/S 748 mmHg 58%
    17:00 +25°C° 0.1 mm 4 m/S 748 mmHg 60%
    18:00 +22°C° 0 mm 4 m/S 748 mmHg 66%
    19:00 +20°C° 0 mm 3 m/S 748 mmHg 73%
    20:00 +19°C° 0 mm 2 m/S 748 mmHg 80%
    21:00 +18°C° 0 mm 3 m/S 749 mmHg 83%
    22:00 +17°C° 0 mm 3 m/S 749 mmHg 85%
    23:00 +16°C° 0 mm 3 m/S 749 mmHg 88%

    übermorgen, 25 Juli, Donnerstag

    Zeit Temperatur Niederschläge Wind Luftdruck Luftfeuchtigkeit
    00:00 +16°C° 0 mm 3 m/S 749 mmHg 87%
    01:00 +15°C° 0 mm 2 m/S 749 mmHg 87%
    02:00 +15°C° 0 mm 2 m/S 749 mmHg 87%
    03:00 +15°C° 0 mm 2 m/S 750 mmHg 87%
    04:00 +14°C° 0 mm 2 m/S 750 mmHg 87%
    05:00 +14°C° 0 mm 2 m/S 750 mmHg 87%
    06:00 +16°C° 0 mm 3 m/S 750 mmHg 81%
    07:00 +18°C° 0 mm 3 m/S 750 mmHg 74%
    08:00 +20°C° 0 mm 3 m/S 750 mmHg 68%
    09:00 +21°C° 0.2 mm 4 m/S 749 mmHg 67%
    10:00 +22°C° 0.2 mm 4 m/S 749 mmHg 66%
    11:00 +23°C° 0.2 mm 5 m/S 749 mmHg 66%
    12:00 +23°C° 0.3 mm 5 m/S 749 mmHg 65%
    13:00 +23°C° 0.3 mm 5 m/S 749 mmHg 64%
    14:00 +25°C° 0.3 mm 5 m/S 748 mmHg 63%
    15:00 +23°C° 0.9 mm 5 m/S 748 mmHg 70%
    16:00 +22°C° 0.9 mm 4 m/S 748 mmHg 77%
    17:00 +21°C° 0.9 mm 4 m/S 748 mmHg 84%
    18:00 +20°C° 0.2 mm 4 m/S 748 mmHg 86%
    19:00 +19°C° 0.2 mm 3 m/S 747 mmHg 89%
    20:00 +18°C° 0.2 mm 3 m/S 747 mmHg 92%
    21:00 +17°C° 0 mm 2 m/S 747 mmHg 93%
    22:00 +16°C° 0 mm 2 m/S 747 mmHg 94%
    23:00 +15°C° 0 mm 2 m/S 747 mmHg 96%

    26 Juli, Freitag

    Zeit Temperatur Niederschläge Wind Luftdruck Luftfeuchtigkeit
    00:00 +15°C° 0 mm 2 m/S 747 mmHg 96%
    01:00 +15°C° 0 mm 2 m/S 747 mmHg 96%
    02:00 +14°C° 0 mm 2 m/S 747 mmHg 97%
    03:00 +14°C° 0 mm 2 m/S 747 mmHg 97%
    04:00 +14°C° 0 mm 2 m/S 747 mmHg 98%
    05:00 +14°C° 0 mm 2 m/S 747 mmHg 98%
    06:00 +15°C° 0 mm 2 m/S 747 mmHg 96%
    07:00 +16°C° 0 mm 2 m/S 747 mmHg 95%
    08:00 +17°C° 0 mm 2 m/S 747 mmHg 93%
    09:00 +17°C° 0 mm 2 m/S 747 mmHg 91%
    10:00 +17°C° 0 mm 2 m/S 747 mmHg 90%
    11:00 +18°C° 0 mm 2 m/S 747 mmHg 88%
    12:00 +19°C° 0.2 mm 2 m/S 747 mmHg 82%
    13:00 +21°C° 0.2 mm 2 m/S 746 mmHg 75%
    14:00 +23°C° 0.2 mm 2 m/S 746 mmHg 69%
    15:00 +22°C° 0.4 mm 3 m/S 746 mmHg 72%
    16:00 +22°C° 0.4 mm 3 m/S 746 mmHg 75%
    17:00 +22°C° 0.4 mm 3 m/S 746 mmHg 79%
    18:00 +20°C° 0.3 mm 3 m/S 746 mmHg 84%
    19:00 +19°C° 0.3 mm 3 m/S 746 mmHg 89%
    20:00 +18°C° 0.3 mm 2 m/S 746 mmHg 94%
    21:00 +17°C° 0 mm 2 m/S 746 mmHg 95%
    22:00 +17°C° 0 mm 2 m/S 747 mmHg 95%
    23:00 +16°C° 0 mm 2 m/S 747 mmHg 96%

    27 Juli, Samstag

    Zeit Temperatur Niederschläge Wind Luftdruck Luftfeuchtigkeit
    00:00 +16°C° 0 mm 2 m/S 747 mmHg 97%
    01:00 +16°C° 0 mm 2 m/S 747 mmHg 97%
    02:00 +16°C° 0 mm 2 m/S 747 mmHg 97%
    03:00 +16°C° 0 mm 2 m/S 747 mmHg 98%
    04:00 +16°C° 0 mm 2 m/S 747 mmHg 98%
    05:00 +16°C° 0 mm 2 m/S 747 mmHg 98%
    06:00 +17°C° 0 mm 3 m/S 747 mmHg 96%
    07:00 +18°C° 0 mm 3 m/S 748 mmHg 95%
    08:00 +18°C° 0 mm 4 m/S 748 mmHg 93%
    09:00 +19°C° 0.2 mm 3 m/S 748 mmHg 92%
    10:00 +19°C° 0.2 mm 3 m/S 748 mmHg 91%
    11:00 +19°C° 0.2 mm 3 m/S 748 mmHg 89%
    12:00 +19°C° 0.2 mm 3 m/S 748 mmHg 87%
    13:00 +20°C° 0.2 mm 2 m/S 748 mmHg 85%
    14:00 +21°C° 0.2 mm 2 m/S 747 mmHg 82%
    15:00 +23°C° 0.1 mm 2 m/S 747 mmHg 81%
    16:00 +23°C° 0.1 mm 1 m/S 747 mmHg 79%
    17:00 +24°C° 0.1 mm 1 m/S 747 mmHg 77%
    18:00 +23°C° 0.4 mm 2 m/S 747 mmHg 82%
    19:00 +21°C° 0.4 mm 2 m/S 747 mmHg 86%
    20:00 +20°C° 0.4 mm 2 m/S 747 mmHg 90%
    21:00 +20°C° 0 mm 2 m/S 747 mmHg 92%
    22:00 +19°C° 0 mm 2 m/S 747 mmHg 94%
    23:00 +19°C° 0 mm 2 m/S 747 mmHg 95%

    28 Juli, Sonntag

    Zeit Temperatur Niederschläge Wind Luftdruck Luftfeuchtigkeit
    00:00 +19°C° 0 mm 2 m/S 747 mmHg 96%
    01:00 +18°C° 0 mm 2 m/S 747 mmHg 96%
    02:00 +18°C° 0 mm 2 m/S 747 mmHg 97%
    03:00 +18°C° 0 mm 2 m/S 747 mmHg 97%
    04:00 +17°C° 0 mm 2 m/S 747 mmHg 97%
    05:00 +17°C° 0 mm 2 m/S 747 mmHg 97%
    06:00 +19°C° 0 mm 2 m/S 747 mmHg 93%
    07:00 +20°C° 0 mm 2 m/S 747 mmHg 90%
    08:00 +23°C° 0 mm 2 m/S 747 mmHg 86%
    09:00 +24°C° 0 mm 3 m/S 747 mmHg 77%
    10:00 +26°C° 0 mm 3 m/S 747 mmHg 69%
    11:00 +28°C° 0 mm 3 m/S 747 mmHg 61%
    12:00 +28°C° 0 mm 3 m/S 747 mmHg 58%
    13:00 +29°C° 0 mm 3 m/S 746 mmHg 55%
    14:00 +29°C° 0 mm 3 m/S 746 mmHg 53%
    15:00 +29°C° 0 mm 3 m/S 746 mmHg 54%
    16:00 +29°C° 0 mm 2 m/S 746 mmHg 56%
    17:00 +29°C° 0 mm 2 m/S 746 mmHg 57%
    18:00 +27°C° 0 mm 2 m/S 746 mmHg 65%
    19:00 +25°C° 0 mm 2 m/S 746 mmHg 72%
    20:00 +23°C° 0 mm 1 m/S 746 mmHg 80%
    21:00 +21°C° 0 mm 2 m/S 746 mmHg 84%
    22:00 +21°C° 0 mm 2 m/S 746 mmHg 87%
    23:00 +20°C° 0 mm 2 m/S 746 mmHg 91%
    Mehr zeigen